iso_date,epoch_date,Year,Hour,Min,DOY,POS_DOY,Lat,Lon,BP,Ts,Ta,has_bp,has_ts,has_ta,BuoyID,Buoy_Type,Buoy_Owner,Logistics,Hemisphere
2020-02-03T00:00:00Z,1580688000,2020,0,0,34.0,34.0,-77.028,-162.264,-999.00,-0.67,-999.0,no,yes,no,300234068240610,SVPGHI,AOML,LAURA_BASSI,South
2020-02-03T01:00:02Z,1580691603,2020,1,0,34.0417,34.0417,-77.028,-162.293,-999.00,-0.71,-999.0,no,yes,no,300234068240610,SVPGHI,AOML,LAURA_BASSI,South
2020-02-03T01:59:57Z,1580695197,2020,2,0,34.0833,34.0833,-77.025,-162.304,-999.00,-0.79,-999.0,no,yes,no,300234068240610,SVPGHI,AOML,LAURA_BASSI,South
2020-02-03T03:00:00Z,1580698800,2020,3,0,34.125,34.125,-77.021,-162.318,-999.00,-0.9,-999.0,no,yes,no,300234068240610,SVPGHI,AOML,LAURA_BASSI,South
2020-02-03T04:00:02Z,1580702403,2020,4,0,34.1667,34.1667,-77.017,-162.338,-999.00,-0.67,-999.0,no,yes,no,300234068240610,SVPGHI,AOML,LAURA_BASSI,South
2020-02-03T04:59:57Z,1580705997,2020,5,0,34.2083,34.2083,-77.011,-162.362,-999.00,-1.04,-999.0,no,yes,no,300234068240610,SVPGHI,AOML,LAURA_BASSI,South
2020-02-03T06:00:00Z,1580709600,2020,6,0,34.25,34.25,-77.005,-162.391,-999.00,-1.0,-999.0,no,yes,no,300234068240610,SVPGHI,AOML,LAURA_BASSI,South
2020-02-03T07:00:02Z,1580713203,2020,7,0,34.2917,34.2917,-76.999,-162.419,-999.00,-0.94,-999.0,no,yes,no,300234068240610,SVPGHI,AOML,LAURA_BASSI,South
2020-02-03T07:59:57Z,1580716797,2020,8,0,34.3333,34.3333,-76.994,-162.454,-999.00,-0.77,-999.0,no,yes,no,300234068240610,SVPGHI,AOML,LAURA_BASSI,South
2020-02-03T09:00:00Z,1580720400,2020,9,0,34.375,34.375,-76.992,-162.496,-999.00,-1.05,-999.0,no,yes,no,300234068240610,SVPGHI,AOML,LAURA_BASSI,South
2020-02-03T10:00:02Z,1580724003,2020,10,0,34.4167,34.4167,-76.993,-162.544,-999.00,-1.3,-999.0,no,yes,no,300234068240610,SVPGHI,AOML,LAURA_BASSI,South
2020-02-03T10:59:57Z,1580727597,2020,11,0,34.4583,34.4583,-76.996,-162.579,-999.00,-1.29,-999.0,no,yes,no,300234068240610,SVPGHI,AOML,LAURA_BASSI,South
2020-02-03T12:00:00Z,1580731200,2020,12,0,34.5,34.5,-76.998,-162.611,-999.00,-1.17,-999.0,no,yes,no,300234068240610,SVPGHI,AOML,LAURA_BASSI,South
2020-02-03T13:00:02Z,1580734803,2020,13,0,34.5417,34.5417,-77.0,-162.631,-999.00,-0.88,-999.0,no,yes,no,300234068240610,SVPGHI,AOML,LAURA_BASSI,South
2020-02-03T13:59:57Z,1580738397,2020,14,0,34.5833,34.5833,-77.002,-162.651,-999.00,-0.87,-999.0,no,yes,no,300234068240610,SVPGHI,AOML,LAURA_BASSI,South
2020-02-03T15:00:00Z,1580742000,2020,15,0,34.625,34.625,-77.001,-162.667,-999.00,-0.86,-999.0,no,yes,no,300234068240610,SVPGHI,AOML,LAURA_BASSI,South
2020-02-03T16:00:02Z,1580745603,2020,16,0,34.6667,34.6667,-77.001,-162.682,-999.00,-0.83,-999.0,no,yes,no,300234068240610,SVPGHI,AOML,LAURA_BASSI,South
2020-02-03T16:59:57Z,1580749197,2020,17,0,34.7083,34.7083,-76.999,-162.698,-999.00,-0.79,-999.0,no,yes,no,300234068240610,SVPGHI,AOML,LAURA_BASSI,South
2020-02-03T18:00:00Z,1580752800,2020,18,0,34.75,34.75,-76.997,-162.711,-999.00,-0.79,-999.0,no,yes,no,300234068240610,SVPGHI,AOML,LAURA_BASSI,South
2020-02-03T19:00:02Z,1580756403,2020,19,0,34.7917,34.7917,-76.995,-162.738,-999.00,-0.75,-999.0,no,yes,no,300234068240610,SVPGHI,AOML,LAURA_BASSI,South
2020-02-03T19:59:57Z,1580759997,2020,20,0,34.8333,34.8333,-76.993,-162.771,-999.00,-0.77,-999.0,no,yes,no,300234068240610,SVPGHI,AOML,LAURA_BASSI,South
2020-02-03T21:00:00Z,1580763600,2020,21,0,34.875,34.875,-76.997,-162.785,-999.00,-0.76,-999.0,no,yes,no,300234068240610,SVPGHI,AOML,LAURA_BASSI,South
2020-02-03T22:00:02Z,1580767203,2020,22,0,34.9167,34.9167,-76.999,-162.798,-999.00,-0.89,-999.0,no,yes,no,300234068240610,SVPGHI,AOML,LAURA_BASSI,South
2020-02-03T22:59:57Z,1580770797,2020,23,0,34.9583,34.9583,-77.002,-162.8,-999.00,-0.78,-999.0,no,yes,no,300234068240610,SVPGHI,AOML,LAURA_BASSI,South
2020-02-04T00:00:00Z,1580774400,2020,0,0,35.0,35.0,-77.004,-162.797,-999.00,-1.02,-999.0,no,yes,no,300234068240610,SVPGHI,AOML,LAURA_BASSI,South
2020-02-04T01:00:02Z,1580778003,2020,1,0,35.0417,35.0417,-77.002,-162.793,-999.00,-1.07,-999.0,no,yes,no,300234068240610,SVPGHI,AOML,LAURA_BASSI,South
2020-02-04T01:59:57Z,1580781597,2020,2,0,35.0833,35.0833,-77.0,-162.789,-999.00,-0.84,-999.0,no,yes,no,300234068240610,SVPGHI,AOML,LAURA_BASSI,South
2020-02-04T03:00:00Z,1580785200,2020,3,0,35.125,35.125,-77.0,-162.79,-999.00,-1.11,-999.0,no,yes,no,300234068240610,SVPGHI,AOML,LAURA_BASSI,South
2020-02-04T04:00:02Z,1580788803,2020,4,0,35.1667,35.1667,-76.997,-162.788,-999.00,-1.02,-999.0,no,yes,no,300234068240610,SVPGHI,AOML,LAURA_BASSI,South
2020-02-04T04:59:57Z,1580792397,2020,5,0,35.2083,35.2083,-76.994,-162.791,-999.00,-1.02,-999.0,no,yes,no,300234068240610,SVPGHI,AOML,LAURA_BASSI,South
2020-02-04T06:00:00Z,1580796000,2020,6,0,35.25,35.25,-76.991,-162.797,-999.00,-1.26,-999.0,no,yes,no,300234068240610,SVPGHI,AOML,LAURA_BASSI,South
2020-02-04T07:00:02Z,1580799603,2020,7,0,35.2917,35.2917,-76.987,-162.811,-999.00,-1.14,-999.0,no,yes,no,300234068240610,SVPGHI,AOML,LAURA_BASSI,South
2020-02-04T07:59:57Z,1580803197,2020,8,0,35.3333,35.3333,-76.983,-162.823,-999.00,-1.23,-999.0,no,yes,no,300234068240610,SVPGHI,AOML,LAURA_BASSI,South
2020-02-04T09:00:00Z,1580806800,2020,9,0,35.375,35.375,-76.98,-162.838,-999.00,-1.16,-999.0,no,yes,no,300234068240610,SVPGHI,AOML,LAURA_BASSI,South
2020-02-04T10:00:02Z,1580810403,2020,10,0,35.4167,35.4167,-76.976,-162.864,-999.00,-0.99,-999.0,no,yes,no,300234068240610,SVPGHI,AOML,LAURA_BASSI,South
2020-02-04T10:59:57Z,1580813997,2020,11,0,35.4583,35.4583,-76.976,-162.88,-999.00,-0.83,-999.0,no,yes,no,300234068240610,SVPGHI,AOML,LAURA_BASSI,South
2020-02-04T12:00:00Z,1580817600,2020,12,0,35.5,35.5,-76.974,-162.897,-999.00,-0.85,-999.0,no,yes,no,300234068240610,SVPGHI,AOML,LAURA_BASSI,South
2020-02-04T13:00:02Z,1580821203,2020,13,0,35.5417,35.5417,-76.971,-162.91,-999.00,-0.87,-999.0,no,yes,no,300234068240610,SVPGHI,AOML,LAURA_BASSI,South
2020-02-04T13:59:57Z,1580824797,2020,14,0,35.5833,35.5833,-76.968,-162.922,-999.00,-0.96,-999.0,no,yes,no,300234068240610,SVPGHI,AOML,LAURA_BASSI,South
2020-02-04T15:00:00Z,1580828400,2020,15,0,35.625,35.625,-76.961,-162.927,-999.00,-1.14,-999.0,no,yes,no,300234068240610,SVPGHI,AOML,LAURA_BASSI,South
2020-02-04T16:00:02Z,1580832003,2020,16,0,35.6667,35.6667,-76.957,-162.926,-999.00,-0.9,-999.0,no,yes,no,300234068240610,SVPGHI,AOML,LAURA_BASSI,South
2020-02-04T16:59:57Z,1580835597,2020,17,0,35.7083,35.7083,-76.952,-162.938,-999.00,-0.98,-999.0,no,yes,no,300234068240610,SVPGHI,AOML,LAURA_BASSI,South
2020-02-04T18:00:00Z,1580839200,2020,18,0,35.75,35.75,-76.945,-162.959,-999.00,-0.91,-999.0,no,yes,no,300234068240610,SVPGHI,AOML,LAURA_BASSI,South
2020-02-04T19:00:02Z,1580842803,2020,19,0,35.7917,35.7917,-76.941,-162.984,-999.00,-0.91,-999.0,no,yes,no,300234068240610,SVPGHI,AOML,LAURA_BASSI,South
2020-02-04T19:59:57Z,1580846397,2020,20,0,35.8333,35.8333,-76.938,-163.002,-999.00,-0.87,-999.0,no,yes,no,300234068240610,SVPGHI,AOML,LAURA_BASSI,South
2020-02-04T21:00:00Z,1580850000,2020,21,0,35.875,35.875,-76.939,-163.021,-999.00,-0.86,-999.0,no,yes,no,300234068240610,SVPGHI,AOML,LAURA_BASSI,South
2020-02-04T22:00:02Z,1580853603,2020,22,0,35.9167,35.9167,-76.931,-163.048,-999.00,-0.81,-999.0,no,yes,no,300234068240610,SVPGHI,AOML,LAURA_BASSI,South
2020-02-04T22:59:57Z,1580857197,2020,23,0,35.9583,35.9583,-76.922,-163.079,-999.00,-0.81,-999.0,no,yes,no,300234068240610,SVPGHI,AOML,LAURA_BASSI,South
2020-02-05T00:00:00Z,1580860800,2020,0,0,36.0,36.0,-76.914,-163.096,-999.00,-0.81,-999.0,no,yes,no,300234068240610,SVPGHI,AOML,LAURA_BASSI,South
2020-02-05T01:00:02Z,1580864403,2020,1,0,36.0417,36.0417,-76.908,-163.121,-999.00,-0.84,-999.0,no,yes,no,300234068240610,SVPGHI,AOML,LAURA_BASSI,South
2020-02-05T01:59:57Z,1580867997,2020,2,0,36.0833,36.0833,-76.901,-163.147,-999.00,-0.85,-999.0,no,yes,no,300234068240610,SVPGHI,AOML,LAURA_BASSI,South
2020-02-05T03:00:00Z,1580871600,2020,3,0,36.125,36.125,-76.894,-163.173,-999.00,-0.87,-999.0,no,yes,no,300234068240610,SVPGHI,AOML,LAURA_BASSI,South
2020-02-05T04:00:02Z,1580875203,2020,4,0,36.1667,36.1667,-76.886,-163.204,-999.00,-1.01,-999.0,no,yes,no,300234068240610,SVPGHI,AOML,LAURA_BASSI,South
2020-02-05T04:59:57Z,1580878797,2020,5,0,36.2083,36.2083,-76.881,-163.232,-999.00,-0.96,-999.0,no,yes,no,300234068240610,SVPGHI,AOML,LAURA_BASSI,South
2020-02-05T06:00:00Z,1580882400,2020,6,0,36.25,36.25,-76.875,-163.252,-999.00,-1.01,-999.0,no,yes,no,300234068240610,SVPGHI,AOML,LAURA_BASSI,South
2020-02-05T07:00:02Z,1580886003,2020,7,0,36.2917,36.2917,-76.868,-163.26,-999.00,-1.06,-999.0,no,yes,no,300234068240610,SVPGHI,AOML,LAURA_BASSI,South
2020-02-05T07:59:57Z,1580889597,2020,8,0,36.3333,36.3333,-76.859,-163.266,-999.00,-1.04,-999.0,no,yes,no,300234068240610,SVPGHI,AOML,LAURA_BASSI,South
2020-02-05T09:00:00Z,1580893200,2020,9,0,36.375,36.375,-76.85,-163.27,-999.00,-1.08,-999.0,no,yes,no,300234068240610,SVPGHI,AOML,LAURA_BASSI,South
2020-02-05T10:00:02Z,1580896803,2020,10,0,36.4167,36.4167,-76.838,-163.279,-999.00,-1.1,-999.0,no,yes,no,300234068240610,SVPGHI,AOML,LAURA_BASSI,South
2020-02-05T10:59:57Z,1580900397,2020,11,0,36.4583,36.4583,-76.827,-163.29,-999.00,-1.29,-999.0,no,yes,no,300234068240610,SVPGHI,AOML,LAURA_BASSI,South
2020-02-05T12:00:00Z,1580904000,2020,12,0,36.5,36.5,-76.818,-163.315,-999.00,-1.09,-999.0,no,yes,no,300234068240610,SVPGHI,AOML,LAURA_BASSI,South
2020-02-05T13:00:02Z,1580907603,2020,13,0,36.5417,36.5417,-76.812,-163.345,-999.00,-1.11,-999.0,no,yes,no,300234068240610,SVPGHI,AOML,LAURA_BASSI,South
2020-02-05T13:59:57Z,1580911197,2020,14,0,36.5833,36.5833,-76.805,-163.365,-999.00,-1.18,-999.0,no,yes,no,300234068240610,SVPGHI,AOML,LAURA_BASSI,South
2020-02-05T15:00:00Z,1580914800,2020,15,0,36.625,36.625,-76.799,-163.381,-999.00,-1.14,-999.0,no,yes,no,300234068240610,SVPGHI,AOML,LAURA_BASSI,South
2020-02-05T16:00:02Z,1580918403,2020,16,0,36.6667,36.6667,-76.791,-163.39,-999.00,-1.13,-999.0,no,yes,no,300234068240610,SVPGHI,AOML,LAURA_BASSI,South
2020-02-05T16:59:57Z,1580921997,2020,17,0,36.7083,36.7083,-76.782,-163.403,-999.00,-1.12,-999.0,no,yes,no,300234068240610,SVPGHI,AOML,LAURA_BASSI,South
2020-02-05T18:00:00Z,1580925600,2020,18,0,36.75,36.75,-76.772,-163.423,-999.00,-1.11,-999.0,no,yes,no,300234068240610,SVPGHI,AOML,LAURA_BASSI,South
2020-02-05T19:00:02Z,1580929203,2020,19,0,36.7917,36.7917,-76.766,-163.444,-999.00,-1.09,-999.0,no,yes,no,300234068240610,SVPGHI,AOML,LAURA_BASSI,South
2020-02-05T19:59:57Z,1580932797,2020,20,0,36.8333,36.8333,-76.758,-163.472,-999.00,-1.13,-999.0,no,yes,no,300234068240610,SVPGHI,AOML,LAURA_BASSI,South
2020-02-05T21:00:00Z,1580936400,2020,21,0,36.875,36.875,-76.752,-163.49,-999.00,-1.05,-999.0,no,yes,no,300234068240610,SVPGHI,AOML,LAURA_BASSI,South
2020-02-05T22:00:02Z,1580940003,2020,22,0,36.9167,36.9167,-76.746,-163.505,-999.00,-1.06,-999.0,no,yes,no,300234068240610,SVPGHI,AOML,LAURA_BASSI,South
2020-02-05T22:59:57Z,1580943597,2020,23,0,36.9583,36.9583,-76.74,-163.519,-999.00,-1.02,-999.0,no,yes,no,300234068240610,SVPGHI,AOML,LAURA_BASSI,South
2020-02-06T00:00:00Z,1580947200,2020,0,0,37.0,37.0,-76.735,-163.54,-999.00,-1.1,-999.0,no,yes,no,300234068240610,SVPGHI,AOML,LAURA_BASSI,South
2020-02-06T01:00:02Z,1580950803,2020,1,0,37.0417,37.0417,-76.732,-163.552,-999.00,-0.96,-999.0,no,yes,no,300234068240610,SVPGHI,AOML,LAURA_BASSI,South
2020-02-06T01:59:57Z,1580954397,2020,2,0,37.0833,37.0833,-76.728,-163.559,-999.00,-0.96,-999.0,no,yes,no,300234068240610,SVPGHI,AOML,LAURA_BASSI,South
2020-02-06T03:00:00Z,1580958000,2020,3,0,37.125,37.125,-76.723,-163.561,-999.00,-1.23,-999.0,no,yes,no,300234068240610,SVPGHI,AOML,LAURA_BASSI,South
2020-02-06T04:00:02Z,1580961603,2020,4,0,37.1667,37.1667,-76.72,-163.576,-999.00,-1.32,-999.0,no,yes,no,300234068240610,SVPGHI,AOML,LAURA_BASSI,South
2020-02-06T04:59:57Z,1580965197,2020,5,0,37.2083,37.2083,-76.716,-163.578,-999.00,-0.96,-999.0,no,yes,no,300234068240610,SVPGHI,AOML,LAURA_BASSI,South
2020-02-06T06:00:00Z,1580968800,2020,6,0,37.25,37.25,-76.71,-163.569,-999.00,-0.91,-999.0,no,yes,no,300234068240610,SVPGHI,AOML,LAURA_BASSI,South
2020-02-06T07:00:02Z,1580972403,2020,7,0,37.2917,37.2917,-76.701,-163.556,-999.00,-0.93,-999.0,no,yes,no,300234068240610,SVPGHI,AOML,LAURA_BASSI,South
2020-02-06T09:00:00Z,1580979600,2020,9,0,37.375,37.375,-76.68,-163.551,-999.00,-0.91,-999.0,no,yes,no,300234068240610,SVPGHI,AOML,LAURA_BASSI,South
2020-02-06T10:00:02Z,1580983203,2020,10,0,37.4167,37.4167,-76.669,-163.57,-999.00,-0.96,-999.0,no,yes,no,300234068240610,SVPGHI,AOML,LAURA_BASSI,South
2020-02-06T10:59:57Z,1580986797,2020,11,0,37.4583,37.4583,-76.66,-163.588,-999.00,-1.0,-999.0,no,yes,no,300234068240610,SVPGHI,AOML,LAURA_BASSI,South
2020-02-06T12:00:00Z,1580990400,2020,12,0,37.5,37.5,-76.654,-163.596,-999.00,-0.92,-999.0,no,yes,no,300234068240610,SVPGHI,AOML,LAURA_BASSI,South
2020-02-06T13:00:02Z,1580994003,2020,13,0,37.5417,37.5417,-76.646,-163.602,-999.00,-0.96,-999.0,no,yes,no,300234068240610,SVPGHI,AOML,LAURA_BASSI,South
2020-02-06T13:59:57Z,1580997597,2020,14,0,37.5833,37.5833,-76.638,-163.606,-999.00,-0.97,-999.0,no,yes,no,300234068240610,SVPGHI,AOML,LAURA_BASSI,South
2020-02-06T16:00:02Z,1581004803,2020,16,0,37.6667,37.6667,-76.624,-163.599,-999.00,-0.95,-999.0,no,yes,no,300234068240610,SVPGHI,AOML,LAURA_BASSI,South
2020-02-06T16:59:57Z,1581008397,2020,17,0,37.7083,37.7083,-76.619,-163.582,-999.00,-1.14,-999.0,no,yes,no,300234068240610,SVPGHI,AOML,LAURA_BASSI,South
2020-02-06T18:00:00Z,1581012000,2020,18,0,37.75,37.75,-76.612,-163.573,-999.00,-1.03,-999.0,no,yes,no,300234068240610,SVPGHI,AOML,LAURA_BASSI,South
2020-02-06T19:00:02Z,1581015603,2020,19,0,37.7917,37.7917,-76.607,-163.565,-999.00,-1.09,-999.0,no,yes,no,300234068240610,SVPGHI,AOML,LAURA_BASSI,South
2020-02-06T19:59:57Z,1581019197,2020,20,0,37.8333,37.8333,-76.602,-163.558,-999.00,-1.19,-999.0,no,yes,no,300234068240610,SVPGHI,AOML,LAURA_BASSI,South
2020-02-06T21:00:00Z,1581022800,2020,21,0,37.875,37.875,-76.598,-163.549,-999.00,-0.98,-999.0,no,yes,no,300234068240610,SVPGHI,AOML,LAURA_BASSI,South
2020-02-06T22:00:02Z,1581026403,2020,22,0,37.9167,37.9167,-76.593,-163.547,-999.00,-1.06,-999.0,no,yes,no,300234068240610,SVPGHI,AOML,LAURA_BASSI,South
2020-02-06T22:59:57Z,1581029997,2020,23,0,37.9583,37.9583,-76.588,-163.546,-999.00,-0.9,-999.0,no,yes,no,300234068240610,SVPGHI,AOML,LAURA_BASSI,South
2020-02-07T00:00:00Z,1581033600,2020,0,0,38.0,38.0,-76.589,-163.554,-999.00,-0.87,-999.0,no,yes,no,300234068240610,SVPGHI,AOML,LAURA_BASSI,South
2020-02-07T01:00:02Z,1581037203,2020,1,0,38.0417,38.0417,-76.59,-163.553,-999.00,-0.88,-999.0,no,yes,no,300234068240610,SVPGHI,AOML,LAURA_BASSI,South
2020-02-07T01:59:57Z,1581040797,2020,2,0,38.0833,38.0833,-76.592,-163.537,-999.00,-0.97,-999.0,no,yes,no,300234068240610,SVPGHI,AOML,LAURA_BASSI,South
2020-02-07T03:00:00Z,1581044400,2020,3,0,38.125,38.125,-76.591,-163.521,-999.00,-0.89,-999.0,no,yes,no,300234068240610,SVPGHI,AOML,LAURA_BASSI,South
2020-02-07T04:00:02Z,1581048003,2020,4,0,38.1667,38.1667,-76.587,-163.509,-999.00,-1.0,-999.0,no,yes,no,300234068240610,SVPGHI,AOML,LAURA_BASSI,South
2020-02-07T04:59:57Z,1581051597,2020,5,0,38.2083,38.2083,-76.584,-163.496,-999.00,-0.94,-999.0,no,yes,no,300234068240610,SVPGHI,AOML,LAURA_BASSI,South
2020-02-07T06:00:00Z,1581055200,2020,6,0,38.25,38.25,-76.578,-163.472,-999.00,-1.14,-999.0,no,yes,no,300234068240610,SVPGHI,AOML,LAURA_BASSI,South
2020-02-07T07:00:02Z,1581058803,2020,7,0,38.2917,38.2917,-76.572,-163.451,-999.00,-1.54,-999.0,no,yes,no,300234068240610,SVPGHI,AOML,LAURA_BASSI,South
2020-02-07T07:59:57Z,1581062397,2020,8,0,38.3333,38.3333,-76.566,-163.439,-999.00,-1.45,-999.0,no,yes,no,300234068240610,SVPGHI,AOML,LAURA_BASSI,South
2020-02-07T09:00:00Z,1581066000,2020,9,0,38.375,38.375,-76.562,-163.43,-999.00,-1.26,-999.0,no,yes,no,300234068240610,SVPGHI,AOML,LAURA_BASSI,South
